星链-34173 (STARLINK-34173)

导读

STARLINK-34173是美国SpaceX星链星座的一颗卫星,于2025年5月28日发射。星链项目旨在构建全球卫星互联网星座,为全球偏远地区及网络基础设施薄弱区域提供高速互联网接入服务,该卫星入轨后将承担星座组网运营任务,进一步扩大星链星座的覆盖范围,提升星座整体服务能力。

基本信息
目录编号:
64196
目录名称:
STARLINK-34173
国际标识:
2025-113AC
轨道中心:
EARTH
卫星名称:
星链-34173
卫星全名:
星链-34173 (STARLINK-34173)
卫星状态:
在轨 (已飞行464 天)
发射日期:
2025-05-28 UTC
国别 :
美国 (US)
星等 :
--
轨道信息
数据来源 国际轨道数据
星历时间: 2026-09-03T14:44:38+0800
22小时前
查看轨道信息
半长轴: 6848.866km
偏心率: 0.0001163
轨道倾角: 53.161°
近地点辐角 83.184°
升交点赤经 344.926°
平近点角 276.929°
近地点: 469.932km
远地点: 471.526km
周期: 94.013分钟
每日圈数: 15.317037
详细信息
固有亮度:
5
最大亮度:
2.5
卫星平台:
Starlink V1.0
覆盖范围:
全球
运营商:
太空探索技术公司
运营商所在国:
美国
制造商(研发单位):
太空探索技术公司
制造商所在国:
美国
使用方式:
暂无
卫星简介
Starlink 计划是 SpaceX 推出的全球卫星互联网项目,通过发射低轨道卫星,为全球尤其是偏远地区提供高速、低延迟的互联网服务。自 2019 年起,Starlink 已部署数千颗卫星,旨在缩小全球数字鸿沟,推动互联网普及。该项目还为军事、航空等行业提供通信支持,带来广泛经济效益。
2D轨道图
3D轨道图
轨道高度分析图
轨道倾角分析图
轨道综合分析图
查看轨道综合分析图
交会数据列表
事件ID 空间交会对象 最接近时刻(TCA) 交会距离 交会风险概率(CRP) 交会风险指数(CRI) 操作
CDM_260906-224806-167406-419621
2026-09-06T
22:48:16+0000
0.651 km
远距离
1.05775E-5 中风险 0.55
CDM_260827-182706-419606-485821
2026-08-27T
18:27:57+0000
2.239 km
极远距离
1.734626E-6 低风险 0.4